[[{"header":{"parameterUnit":"m.s-1","parameterCategory":1,"la1":30.2991,"la2":30.254,"lo1":-89.0895,"lo2":-89.0444,"dy":0.0017,"dx":0.0017,"nx":28,"ny":28,"refTime":"2023-08-01T09:00:00:Z","depth":0,"parameterNumber":2,"parameterNumberName":"U-component_of_WINDS"},"data":[0,0,0,0,0,0,0,0,0,0,0,0,0,0,0,0,0,0,0,0,0,0,0,0,0,0,0,0,0,0,0,0,0,0,0,0,0,0,0,0,0,0,0,0,0,0,0,0,0,0,0,0,0,0,0,0,0,0,0.5938,0.5937,0,0.5868,0.5868,0.5867,0.5775,0.5774,0.5772,0.5771,0.57,0.57,0.5699,0,0,0,0,0,0,0,0,0,0,0,0,0,0.5993,0.5992,0.5938,0.5937,0.5936,0.5869,0.5868,0.5867,0.5775,0.5773,0.5772,0.577,0.57,0.57,0.5699,0,0,0,0,0,0,0,0,0,0,0,0,0,0.5951,0.5992,0.5938,0.5883,0.5877,0.5869,0.5868,0.5866,0.5776,0.5773,0.5771,0.5769,0.57,0.57,0.5699,0.574,0,0,0.5697,0.5697,0,0,0,0,0,0,0,0,0.5953,0.5949,0.5892,0.5886,0.588,0.5828,0.5861,0.5824,0.5776,0.5814,0.5771,0.5768,0.5745,0.574,0.5732,0.5737,0.5734,0.5697,0.5696,0.5696,0.5696,0,0,0,0,0,0,0,0.5956,0.5952,0.591,0.5891,0.5884,0.5861,0.5853,0.5854,0.5793,0.5811,0.5804,0.5797,0.5741,0.5733,0.573,0.5733,0.5697,0.5696,0.5696,0.5695,0.5769,0.5771,0,0,0,0,0,0,0.5968,0.5955,0.5913,0.5908,0.5912,0.5862,0.5853,0.5847,0.5793,0.5782,0.5799,0.5793,0.5735,0.5731,0.5727,0.5772,0.5696,0.5695,0.5695,0.5766,0.5769,0.5772,0,0,0,0,0,0,0.5969,0.5965,0.5916,0.593,0.5922,0.5864,0.5858,0.5847,0.5839,0.5784,0.5773,0.5802,0.5733,0.5728,0.5738,0.5768,0.5695,0.5694,0.5763,0.5767,0.577,0.5862,0,0,0,0,0,0,0.5971,0.5966,0.5981,0.5931,0.5921,0.5927,0.586,0.5847,0.5838,0.5829,0.5783,0.5774,0.5731,0.5739,0.5737,0.5766,0.5694,0.576,0.5765,0.5769,0.5856,0.5868,0.5879,0,0,0,0,0,0.5973,0.6009,0.5982,0.5977,0.5938,0.5929,0.5924,0.5874,0.5841,0.5855,0.582,0.5775,0.5765,0.5741,0.5738,0.5767,0.5758,0.5764,0.5769,0.5851,0.5866,0.5879,0,0,0,0,0,0,0.6064,0.6002,0.597,0.5991,0.5966,0.5914,0.5931,0.5891,0.5876,0.5868,0.5807,0.5798,0.5815,0.5792,0.5766,0.5804,0.5755,0.576,0.5819,0.5832,0.5844,0.5849,0.5693,0,0,0,0,0,0.6087,0.6084,0.603,0.6053,0.6042,0.5989,0.5983,0.5947,0.5919,0.5908,0.5873,0.5848,0.5839,0.5834,0.5823,0.5852,0.5841,0.5871,0.5882,0.5892,0.5897,0.5911,0.5924,0.5789,0.5789,0.5789,0,0,0.6133,0.6098,0.6101,0.6071,0.6047,0.6046,0.5981,0.5983,0.5982,0.5908,0.5915,0.5889,0.5857,0.5877,0.5884,0.5858,0.5932,0.5899,0.5907,0.5906,0.5918,0.5931,0.5942,0.5793,0.5792,0.5791,0,0,0.6217,0.619,0.6207,0.6185,0.615,0.6115,0.6119,0.6073,0.6053,0.6059,0.6004,0.6002,0.5988,0.5967,0.5955,0.6033,0.5991,0.6031,0.609,0.6105,0.6116,0.6125,0.6153,0.6164,0.6036,0.6036,0.6036,0,0.6279,0.6275,0.6221,0.6227,0.6215,0.6149,0.6166,0.6147,0.6111,0.6105,0.6076,0.6058,0.6031,0.6046,0.6065,0.6057,0.606,0.6036,0.6118,0.6127,0.6135,0.6161,0.6172,0.6041,0.6041,0.604,0.604,0,0.6353,0.6352,0.637,0.6337,0.6327,0.6339,0.6287,0.6284,0.6249,0.6217,0.6224,0.619,0.6171,0.6172,0.6138,0.6182,0.6167,0.613,0.6079,0.6154,0.6177,0.6187,0.6048,0.6047,0.6045,0.6044,0,0,0.6492,0.6429,0.6437,0.6421,0.6379,0.6377,0.6385,0.6367,0.6366,0.6343,0.6349,0.6339,0.6304,0.6291,0.6253,0.6266,0.6331,0.6227,0.6225,0.6248,0.6378,0.6407,0.642,0.6303,0.6305,0.6306,0.6381,0,0.6568,0.6579,0.6532,0.6555,0.6554,0.6491,0.6499,0.6474,0.6444,0.6439,0.6406,0.64,0.6354,0.6345,0.6355,0.6321,0.6356,0.6315,0.6309,0.6309,0.6319,0.6432,0.6462,0.6535,0.639,0.6392,0.6393,0,0.6659,0.6641,0.6665,0.6622,0.6619,0.6627,0.6607,0.6602,0.6573,0.655,0.6536,0.6493,0.6499,0.6451,0.6458,0.6431,0.6426,0.6409,0.641,0.6408,0.6356,0.6433,0.6557,0.6568,0.6407,0.6405,0.6404,0,0.6758,0.6741,0.6753,0.6741,0.6691,0.6698,0.6678,0.6646,0.6638,0.662,0.6615,0.6598,0.6589,0.6577,0.6531,0.65,0.6545,0.6493,0.6527,0.6528,0.6539,0.6539,0.6664,0.6535,0.6535,0.6535,0.6535,0,0.6848,0.6866,0.6797,0.6805,0.6822,0.6767,0.6786,0.6759,0.6732,0.6734,0.6678,0.6681,0.662,0.6616,0.658,0.6592,0.6589,0.6571,0.6561,0.6576,0.6578,0.6572,0.6566,0.6538,0.6537,0.6537,0.6536,0,0.6963,0.6917,0.6926,0.6878,0.6867,0.6882,0.6841,0.6846,0.6813,0.6816,0.6813,0.6762,0.6754,0.6707,0.6689,0.6665,0.6691,0.6671,0.6701,0.6694,0.6731,0.6729,0.6857,0.6871,0.6733,0.6735,0.6736,0,0.7023,0.7035,0.6989,0.6986,0.6968,0.6964,0.6956,0.6902,0.6896,0.6864,0.6873,0.6862,0.6849,0.6841,0.6802,0.6788,0.6767,0.6813,0.6765,0.678,0.6768,0.6769,0.677,0.6824,0.6825,0.6827,0.6828,0,0.7136,0.7113,0.7104,0.7087,0.7079,0.7063,0.7043,0.7044,0.6985,0.6981,0.6973,0.6964,0.6945,0.6934,0.6914,0.6893,0.6851,0.6844,0.6851,0.6866,0.6883,0.6875,0.6729,0.6841,0.684,0.6839,0.6838,0.6837,0.7226,0.7234,0.7202,0.7194,0.7174,0.7157,0.716,0.7127,0.712,0.7101,0.707,0.7066,0.7037,0.7005,0.6988,0.6984,0.696,0.697,0.6973,0.6976,0.6984,0.6884,0.698,0.698,0.6979,0.6979,0.6979,0,0.7336,0.7313,0.7306,0.7281,0.7274,0.7235,0.7212,0.7209,0.7207,0.7183,0.7172,0.7164,0.7153,0.7114,0.7099,0.7104,0.7085,0.7102,0.7101,0.7097,0.7007,0.7002,0.7118,0.7118,0.7118,0.7118,0.7118,0.7118,0.7393,0.7405,0.7378,0.738,0.7356,0.7352,0.7343,0.7327,0.7308,0.7301,0.7292,0.7266,0.7236,0.7219,0.7208,0.7197,0.7194,0.7218,0.7201,0.7117,0.7103,0.7091,0.7086,0.7218,0.7218,0.7291,0.7292,0.7293]},{"header":{"parameterUnit":"m.s-1","parameterCategory":1,"la1":30.2991,"la2":30.254,"lo1":-89.0895,"lo2":-89.0444,"dy":0.0017,"dx":0.0017,"nx":28,"ny":28,"refTime":"2023-08-01T09:00:00:Z","depth":0,"parameterNumber":3,"parameterNumberName":"V-component_of_WINDS"},"data":[0,0,0,0,0,0,0,0,0,0,0,0,0,0,0,0,0,0,0,0,0,0,0,0,0,0,0,0,0,0,0,0,0,0,0,0,0,0,0,0,0,0,0,0,0,0,0,0,0,0,0,0,0,0,0,0,0,0,-1.6522,-1.6522,0,-1.6522,-1.6522,-1.6522,-1.6478,-1.6477,-1.6476,-1.6475,-1.6473,-1.6474,-1.6475,0,0,0,0,0,0,0,0,0,0,0,0,0,-1.6485,-1.6486,-1.6522,-1.6522,-1.6522,-1.6522,-1.6522,-1.6522,-1.6479,-1.6477,-1.6476,-1.6475,-1.6473,-1.6474,-1.6475,0,0,0,0,0,0,0,0,0,0,0,0,0,-1.6495,-1.6486,-1.6522,-1.6501,-1.6499,-1.6522,-1.6522,-1.6522,-1.6479,-1.6477,-1.6476,-1.6474,-1.6473,-1.6474,-1.6476,-1.6519,0,0,-1.648,-1.6481,0,0,0,0,0,0,0,0,-1.6494,-1.6496,-1.6504,-1.6502,-1.65,-1.6499,-1.6508,-1.6521,-1.6479,-1.6486,-1.6475,-1.6473,-1.6483,-1.6484,-1.6487,-1.6519,-1.6519,-1.648,-1.6481,-1.6482,-1.6482,0,0,0,0,0,0,0,-1.6494,-1.6496,-1.6522,-1.6504,-1.6502,-1.6491,-1.649,-1.651,-1.6494,-1.6486,-1.6482,-1.6483,-1.6482,-1.6486,-1.6487,-1.6519,-1.648,-1.6482,-1.6483,-1.6483,-1.6589,-1.6591,0,0,0,0,0,0,-1.6496,-1.6496,-1.6522,-1.6522,-1.6493,-1.6493,-1.6492,-1.6501,-1.6494,-1.6491,-1.6485,-1.6481,-1.6484,-1.6485,-1.6487,-1.6539,-1.6482,-1.6483,-1.6484,-1.6587,-1.659,-1.6592,0,0,0,0,0,0,-1.6495,-1.6499,-1.6522,-1.6508,-1.651,-1.6496,-1.6505,-1.6502,-1.6506,-1.6493,-1.649,-1.6492,-1.6483,-1.6484,-1.6512,-1.6538,-1.6484,-1.6485,-1.6585,-1.6588,-1.6591,-1.6643,0,0,0,0,0,0,-1.6495,-1.6499,-1.6515,-1.6509,-1.6511,-1.6547,-1.6507,-1.6503,-1.6509,-1.6504,-1.6499,-1.6497,-1.6482,-1.651,-1.6514,-1.654,-1.6487,-1.6583,-1.6586,-1.659,-1.6639,-1.6648,-1.6655,0,0,0,0,0,-1.6493,-1.6529,-1.6516,-1.6519,-1.6531,-1.6549,-1.655,-1.6533,-1.6511,-1.6527,-1.652,-1.6497,-1.6535,-1.6513,-1.6517,-1.6544,-1.6581,-1.6585,-1.659,-1.6636,-1.6646,-1.6655,0,0,0,0,0,0,-1.6537,-1.6527,-1.6513,-1.6547,-1.655,-1.6542,-1.6562,-1.6544,-1.6552,-1.6547,-1.6524,-1.6524,-1.6555,-1.6552,-1.6528,-1.6587,-1.6554,-1.6559,-1.6588,-1.6598,-1.6605,-1.6606,-1.6488,0,0,0,0,0,-1.6551,-1.6566,-1.6557,-1.6588,-1.659,-1.6576,-1.6583,-1.657,-1.6571,-1.6571,-1.6565,-1.6567,-1.658,-1.6588,-1.6599,-1.6639,-1.6638,-1.6659,-1.6667,-1.6673,-1.6678,-1.6702,-1.6712,-1.6606,-1.6606,-1.6606,0,0,-1.6579,-1.6576,-1.6587,-1.6597,-1.6597,-1.6615,-1.6577,-1.6596,-1.6609,-1.6574,-1.66,-1.6597,-1.6597,-1.6632,-1.6647,-1.663,-1.6708,-1.6679,-1.6684,-1.6686,-1.6707,-1.6717,-1.6726,-1.6609,-1.6608,-1.6608,0,0,-1.664,-1.6638,-1.6665,-1.6667,-1.6668,-1.6659,-1.6666,-1.6661,-1.6658,-1.6684,-1.6659,-1.6674,-1.6695,-1.6698,-1.6702,-1.6767,-1.6747,-1.6771,-1.6812,-1.6835,-1.6844,-1.6851,-1.6876,-1.6885,-1.6776,-1.6776,-1.6776,0,-1.6674,-1.67,-1.6681,-1.6703,-1.671,-1.668,-1.6708,-1.671,-1.6715,-1.672,-1.6701,-1.673,-1.6728,-1.6764,-1.678,-1.6784,-1.6792,-1.6771,-1.6844,-1.6851,-1.6858,-1.6882,-1.6891,-1.6779,-1.6779,-1.6778,-1.6778,0,-1.6744,-1.6762,-1.6784,-1.6791,-1.6799,-1.6824,-1.681,-1.6821,-1.6808,-1.6801,-1.683,-1.6826,-1.6837,-1.6845,-1.6831,-1.688,-1.687,-1.6848,-1.6815,-1.6871,-1.6894,-1.6902,-1.6783,-1.6782,-1.6781,-1.6781,0,0,-1.683,-1.6829,-1.6838,-1.6842,-1.6842,-1.6856,-1.6881,-1.6892,-1.6903,-1.6908,-1.6929,-1.6949,-1.693,-1.6935,-1.6921,-1.6941,-1.6996,-1.6917,-1.6917,-1.6933,-1.7053,-1.707,-1.7081,-1.6983,-1.6984,-1.6985,-1.7053,0,-1.6891,-1.6933,-1.6919,-1.6962,-1.698,-1.6953,-1.6975,-1.6978,-1.6973,-1.6987,-1.6981,-1.6997,-1.6969,-1.6972,-1.6991,-1.6985,-1.702,-1.698,-1.7003,-1.7004,-1.7005,-1.7092,-1.711,-1.7174,-1.7062,-1.7063,-1.7064,0,-1.6966,-1.6977,-1.7022,-1.7023,-1.703,-1.7049,-1.7061,-1.7075,-1.7078,-1.7073,-1.708,-1.7063,-1.7088,-1.7055,-1.709,-1.7063,-1.7072,-1.7071,-1.7073,-1.7075,-1.7038,-1.7099,-1.7194,-1.7204,-1.7077,-1.7076,-1.7075,0,-1.7028,-1.7053,-1.7084,-1.7088,-1.7089,-1.7104,-1.7105,-1.7107,-1.7116,-1.7126,-1.7132,-1.7144,-1.7151,-1.7161,-1.7148,-1.7125,-1.7186,-1.7151,-1.7183,-1.7184,-1.7198,-1.7197,-1.7298,-1.7201,-1.7201,-1.7201,-1.72,0,-1.7098,-1.7127,-1.7112,-1.7131,-1.7164,-1.7148,-1.7181,-1.7179,-1.7182,-1.7201,-1.7178,-1.7196,-1.7177,-1.7194,-1.7184,-1.7216,-1.7219,-1.7216,-1.7214,-1.7219,-1.722,-1.7225,-1.7221,-1.7203,-1.7203,-1.7202,-1.7202,0,-1.7172,-1.7163,-1.7196,-1.7195,-1.7195,-1.722,-1.7219,-1.7238,-1.7232,-1.7256,-1.7261,-1.7252,-1.7271,-1.7259,-1.7277,-1.7271,-1.7313,-1.7303,-1.7313,-1.7311,-1.7345,-1.7343,-1.7453,-1.7468,-1.736,-1.7361,-1.7362,0,-1.7218,-1.724,-1.7243,-1.7255,-1.7258,-1.7277,-1.7287,-1.7272,-1.7283,-1.7291,-1.7309,-1.7326,-1.734,-1.7371,-1.7366,-1.7381,-1.7373,-1.7411,-1.7375,-1.7381,-1.7376,-1.7375,-1.7379,-1.7418,-1.7419,-1.742,-1.7421,0,-1.7301,-1.7296,-1.7312,-1.7327,-1.734,-1.7351,-1.736,-1.7371,-1.7356,-1.737,-1.739,-1.7401,-1.7422,-1.744,-1.7453,-1.7454,-1.7436,-1.7433,-1.7441,-1.7448,-1.7454,-1.7453,-1.7334,-1.743,-1.7429,-1.7429,-1.7428,-1.7428,-1.7364,-1.7384,-1.739,-1.7409,-1.7414,-1.7424,-1.7442,-1.744,-1.7456,-1.7473,-1.7463,-1.7488,-1.7493,-1.7509,-1.7513,-1.7532,-1.7517,-1.7529,-1.7532,-1.7536,-1.7542,-1.745,-1.7534,-1.7534,-1.7534,-1.7533,-1.7533,0,-1.7447,-1.7451,-1.7468,-1.7483,-1.7499,-1.7481,-1.7491,-1.7505,-1.7527,-1.7534,-1.7549,-1.7573,-1.7592,-1.7589,-1.7606,-1.7622,-1.7615,-1.7627,-1.7627,-1.7628,-1.7553,-1.7545,-1.7633,-1.7633,-1.7633,-1.7633,-1.7633,-1.7633,-1.7493,-1.7527,-1.7523,-1.7561,-1.7563,-1.7588,-1.7596,-1.7605,-1.7611,-1.764,-1.7656,-1.7654,-1.7658,-1.7676,-1.7692,-1.7691,-1.7699,-1.7716,-1.7712,-1.7642,-1.7633,-1.7623,-1.7616,-1.7717,-1.7717,-1.7785,-1.7785,-1.7786]}]]